Theta_e
332 333 333 334 334 334 334 334 334 333 331 331 332 332 332 333 332 333 334 333 334 334 335 335 334 334 335 335 335 335 334 334 334 334 334 335 334 334 334 334 333 332
330 332 332 332 333 334 334 334 334 334 334 333 333 332 332 332 332 333 333 333 334 334 334 335 334 334 335 335 335 335 334 334 334 334 335 335 334 334 333 333 334 333
329 331 331 332 333 334 335 334 334 334 334 333 332 332 333 333 332 332 332 333 334 334 334 335 335 335 335 335 335 335 334 334 334 334 334 335 333 333 333 332 332 333
328 330 330 331 332 333 333 333 333 333 332 331 331 332 333 333 332 331 332 333 333 333 334 334 334 335 335 335 335 334 333 334 335 335 334 334 333 333 333 332 332 333
326 328 329 330 331 331 332 332 332 331 330 331 331 332 333 333 332 332 332 333 333 333 334 334 334 335 336 334 333 333 333 334 335 335 334 333 333 334 334 334 334 333
325 327 328 330 331 331 331 331 331 331 330 331 332 332 333 333 332 332 332 333 333 333 334 334 335 335 335 333 332 332 333 333 333 335 334 333 333 334 333 333 332 332
324 326 328 329 329 330 331 331 330 330 330 331 332 332 333 333 332 333 333 333 333 333 334 334 335 335 334 334 333 333 333 333 334 335 334 333 333 334 333 332 332 332
323 325 326 328 329 329 330 330 330 330 330 330 331 332 333 333 333 332 332 333 333 332 333 334 334 334 334 335 334 332 333 334 334 334 334 333 333 333 333 332 332 331
321 322 323 325 328 328 328 329 329 330 330 330 331 332 332 333 333 332 332 333 333 332 333 334 333 333 332 333 332 332 333 335 334 335 335 334 333 333 332 331 331 331
320 320 321 322 324 326 328 328 328 329 329 330 331 331 332 332 333 333 333 333 333 332 333 333 332 332 331 330 331 333 334 334 334 335 335 334 334 333 331 330 331 332
318 318 318 318 320 323 325 327 328 328 329 329 330 330 332 332 332 333 333 333 333 332 332 332 331 331 331 330 329 331 333 333 334 335 335 334 333 331 330 330 331 332
317 317 317 317 318 320 322 325 326 327 328 329 329 329 331 331 331 331 332 332 332 332 332 331 330 330 331 330 329 330 333 333 333 333 332 332 332 331 330 331 331 332
316 316 316 316 317 318 320 323 325 326 327 328 328 329 330 331 331 331 331 331 331 331 331 331 330 330 330 330 329 330 332 333 333 333 331 330 330 330 331 332 332 332
314 315 315 315 315 317 318 321 323 325 326 327 328 328 329 330 330 330 331 331 331 331 331 331 330 330 329 330 329 329 331 332 333 333 332 330 330 331 332 332 332 332
313 313 314 314 314 315 316 318 321 323 326 326 327 328 328 329 330 330 330 329 330 331 332 331 330 330 329 330 329 329 330 333 332 333 332 331 332 332 332 332 332 332
312 312 312 313 313 314 314 316 319 322 324 326 327 327 328 328 329 329 330 329 329 330 331 331 331 331 330 330 330 329 331 332 332 332 333 333 333 333 332 332 331 330
311 311 311 311 312 312 313 314 315 318 321 324 326 326 327 327 328 328 329 328 328 329 330 331 331 331 330 330 330 329 330 331 332 332 332 332 332 332 332 332 331 331
311 311 311 310 310 311 311 312 313 314 315 318 321 324 325 326 326 327 327 327 327 328 329 329 329 330 330 329 328 328 328 329 330 331 331 330 331 331 330 331 331 331
310 310 310 309 309 310 310 310 310 311 311 312 315 319 322 323 324 325 325 325 327 327 327 326 327 327 328 327 327 328 328 328 328 329 329 328 329 330 329 328 329 330
310 310 309 309 309 309 309 308 308 309 309 309 311 314 317 319 320 320 320 321 323 325 325 325 325 325 326 326 326 328 328 327 326 327 328 328 328 328 327 327 328 328
310 309 309 308 308 308 308 307 307 307 307 307 308 309 311 313 314 314 314 315 317 319 321 322 322 323 324 325 326 327 327 326 326 328 328 328 328 329 328 328 328 327
309 309 308 308 308 307 307 306 306 306 306 306 306 306 307 308 309 310 311 311 312 313 315 316 317 319 322 324 324 325 326 326 327 328 329 328 329 329 328 328 328 327
307 308 308 307 307 307 306 305 305 305 305 305 305 305 304 304 305 306 308 309 310 310 311 312 313 316 319 319 318 319 322 324 326 327 328 328 328 327 327 327 327 326
306 306 307 307 307 306 306 305 305 305 305 304 304 303 303 302 302 303 304 306 307 308 309 310 311 314 316 316 315 317 321 324 325 326 326 326 325 324 323 323 324 324
305 304 305 306 307 306 305 305 305 304 304 304 303 303 302 302 301 301 301 302 304 306 308 309 310 312 314 315 315 317 320 321 322 323 323 322 320 319 318 318 319 321
305 304 303 304 306 306 305 305 304 304 303 303 303 303 302 302 301 301 301 300 302 303 304 306 309 311 313 314 314 315 317 318 319 320 320 318 317 315 314 313 314 317
Wind_Speed
10 10 8 8 10 11 12 13 13 13 14 15 18 20 17 15 16 17 17 18 19 19 18 16 16 16 15 14 15 16 17 18 18 16 16 17 16 15 15 15 15 13
11 10 9 10 11 11 12 14 15 14 13 13 16 19 16 13 15 17 18 18 18 19 19 17 16 15 14 15 17 19 18 17 18 16 16 17 16 17 17 16 15 14
12 11 11 11 11 11 11 12 13 13 12 13 14 15 14 12 15 17 18 17 17 18 18 17 17 16 16 17 18 20 18 16 17 16 15 16 16 17 18 17 16 15
13 13 12 11 11 11 11 11 11 10 11 12 13 14 13 13 15 17 18 18 19 20 19 18 18 17 18 18 19 19 18 15 16 16 15 16 16 16 15 15 15 14
12 13 13 11 11 11 11 11 11 10 10 11 12 13 14 13 14 17 18 18 19 20 20 19 19 19 19 20 20 19 17 15 15 16 16 16 15 15 14 14 14 14
11 11 12 11 11 11 11 10 10 10 10 11 12 12 13 13 13 15 17 16 17 20 20 19 19 20 20 20 20 18 17 16 15 15 16 16 15 15 15 15 16 15
12 10 11 12 11 10 10 10 10 10 10 11 12 12 13 14 13 14 14 15 17 19 18 18 18 18 17 17 18 18 16 15 15 15 16 16 15 15 16 15 16 16
12 11 11 12 10 8 9 9 9 9 10 10 11 12 14 14 14 14 14 14 16 18 17 16 18 18 16 17 18 18 17 16 15 16 17 16 16 15 16 15 15 17
13 12 12 12 11 9 8 8 8 9 10 10 11 12 14 16 15 15 15 14 16 18 18 17 18 18 18 19 18 17 17 17 16 17 17 17 16 15 16 16 15 16
14 13 12 13 12 10 9 8 8 9 9 10 11 12 14 16 16 15 15 15 16 18 20 21 21 19 18 19 19 17 17 16 16 16 16 16 16 16 17 18 16 15
15 14 13 13 12 11 10 9 9 9 9 9 11 12 14 16 16 15 15 15 17 18 19 21 23 21 18 18 18 17 16 16 16 16 14 14 17 17 18 18 16 15
17 16 14 14 14 13 11 10 10 10 9 9 10 11 13 15 15 15 15 16 18 17 17 20 23 22 20 19 19 17 16 16 16 16 16 16 17 17 18 17 16 16
19 17 16 16 16 15 13 12 11 11 10 10 10 11 12 14 15 15 16 17 18 18 17 19 22 23 22 21 20 18 17 17 16 16 17 18 17 17 17 17 16 16
20 18 17 17 17 16 14 13 12 11 11 10 10 11 11 12 14 15 16 16 17 17 16 18 22 23 23 22 20 17 17 17 16 16 16 16 17 17 17 16 16 16
21 20 19 19 18 18 16 15 13 12 11 11 10 11 12 12 13 15 16 17 18 16 16 17 19 20 22 23 21 18 17 17 16 16 15 15 16 16 16 16 16 16
21 21 21 20 20 20 19 17 16 13 12 11 10 11 12 12 13 13 15 17 18 16 16 17 16 17 20 24 22 20 18 17 15 15 16 15 15 15 16 16 16 16
21 21 21 21 21 20 19 19 18 15 13 11 10 10 10 11 12 12 13 15 17 17 16 15 15 16 19 22 23 21 18 16 15 15 16 15 15 16 16 16 16 16
22 22 22 22 21 21 20 19 19 17 17 14 12 12 12 11 11 12 14 15 17 18 17 15 14 15 18 22 25 23 20 16 15 15 16 16 16 17 17 17 16 15
22 22 22 22 22 21 20 20 19 19 19 18 16 14 12 10 8 9 11 14 17 19 19 17 16 17 18 22 24 23 20 18 16 15 16 16 16 17 17 16 15 15
21 21 21 22 22 21 21 20 19 19 18 17 17 15 12 9 7 6 6 8 13 18 18 17 19 22 21 22 24 23 20 20 17 14 14 15 16 16 16 15 15 15
21 21 21 22 22 21 21 20 19 19 17 16 15 15 14 10 8 6 5 3 6 12 15 16 19 22 22 22 23 23 21 19 16 12 12 13 13 13 14 13 14 14
20 21 21 22 22 21 21 21 20 18 17 16 14 13 14 13 11 8 6 4 2 3 7 10 13 16 20 22 23 23 21 19 14 11 11 11 11 11 11 11 11 11
19 20 20 21 21 22 22 21 20 18 17 15 15 14 14 14 13 12 10 8 6 5 3 3 5 10 15 17 16 18 18 15 13 11 11 11 10 10 9 9 10 11
18 18 18 20 21 21 21 21 20 19 17 16 15 15 15 15 14 14 14 14 13 11 9 7 6 6 9 10 9 12 12 9 10 11 11 11 10 9 8 9 12 13
18 17 17 19 20 20 20 20 19 19 18 17 16 16 15 15 15 16 18 19 19 19 15 12 12 11 8 7 7 9 9 8 8 7 7 10 10 9 8 8 11 14
18 17 15 16 18 19 19 19 19 18 18 18 18 17 17 17 17 18 19 21 24 26 23 19 17 14 9 5 3 4 6 10 10 7 5 8 9 9 9 10 11 14
Wind_Direction
292 284 274 249 229 217 211 211 212 210 208 213 222 225 224 222 220 216 215 220 225 226 224 218 210 205 202 203 203 204 207 204 201 200 199 201 204 205 203 203 208 210
291 284 275 262 247 230 216 213 215 218 218 220 225 226 225 222 219 219 220 223 228 227 223 220 215 208 205 207 205 204 206 202 198 199 198 200 204 206 204 200 204 209
301 289 269 259 258 249 235 228 223 223 227 228 226 223 220 214 215 219 221 226 234 233 226 220 216 211 209 211 208 205 204 199 196 198 198 200 205 208 206 200 203 206
314 301 282 267 267 264 254 247 241 238 240 238 230 224 222 217 216 216 218 225 232 234 230 224 218 214 211 212 210 206 204 201 197 196 198 200 203 209 208 203 204 207
320 312 299 281 270 268 264 262 258 252 249 245 236 230 230 226 219 215 217 221 225 228 230 226 220 215 210 210 212 207 202 201 198 196 199 202 202 207 208 204 205 207
323 317 308 294 277 269 269 272 270 261 253 247 242 237 235 234 227 218 216 219 222 226 227 225 221 217 211 209 210 206 202 203 203 200 203 205 205 207 209 209 207 206
330 324 314 304 293 282 279 280 278 269 260 253 247 242 241 240 234 225 220 222 227 230 230 226 223 219 212 207 206 205 203 204 204 204 207 209 207 207 211 214 207 202
336 338 330 321 313 304 297 296 295 285 272 263 255 249 246 242 235 227 223 224 229 233 233 229 225 222 217 212 209 206 204 204 204 205 206 207 207 208 212 215 209 205
340 345 345 340 334 325 316 311 306 295 283 274 266 257 250 245 235 228 224 225 229 230 227 224 222 223 225 221 215 208 206 206 204 205 203 202 204 206 209 215 215 211
344 346 349 349 346 336 327 318 307 299 292 283 275 268 259 250 240 232 227 223 222 225 226 225 221 220 224 226 221 211 208 207 207 206 202 199 202 204 208 214 216 214
347 347 348 349 349 345 334 321 310 303 293 282 274 269 263 256 244 235 231 223 219 224 228 228 225 220 219 225 226 218 212 212 211 207 201 199 201 205 212 217 214 213
351 349 347 347 348 347 340 324 310 300 291 281 270 265 264 261 251 239 233 228 224 223 224 226 226 222 219 221 225 224 217 215 214 210 207 207 206 209 216 218 214 213
354 351 348 347 345 342 337 324 310 299 292 281 268 264 263 260 257 248 238 234 230 225 221 222 223 224 224 220 220 226 223 217 217 215 210 208 209 213 216 215 214 213
354 352 349 347 345 342 337 328 317 304 295 286 273 265 260 256 256 252 244 240 236 228 222 220 220 223 226 220 213 220 227 222 219 218 212 207 208 212 214 212 212 214
355 353 351 349 348 347 344 338 327 312 297 290 281 272 265 258 252 248 246 245 239 229 221 221 219 218 224 221 209 210 222 222 217 217 214 210 208 209 212 211 211 214
358 355 353 352 352 350 349 346 340 326 307 295 287 279 271 265 260 253 248 247 244 236 226 223 219 214 222 224 212 206 215 217 213 213 210 208 207 207 210 211 211 213
360 357 356 355 354 353 352 350 347 343 333 318 303 292 280 269 263 256 246 242 243 241 233 227 221 215 221 226 219 212 214 214 212 211 208 205 205 204 206 208 207 209
1 359 360 358 357 356 355 354 352 352 350 345 332 316 304 291 273 260 253 244 236 232 230 230 229 223 224 229 228 222 217 215 216 214 211 209 206 202 203 203 200 201
4 2 2 2 1 360 359 359 358 358 358 357 351 337 322 314 297 274 263 248 235 231 231 234 239 238 234 234 233 225 217 216 219 217 214 213 208 204 205 201 196 196
7 7 6 5 4 3 4 5 4 4 3 2 1 356 348 338 324 308 291 258 236 232 231 229 233 239 240 235 230 223 215 214 218 218 216 214 210 208 208 203 199 199
8 10 10 9 8 8 9 9 8 7 6 6 8 10 11 7 355 347 343 315 237 225 224 219 224 235 239 231 223 219 214 213 214 213 211 210 208 206 205 203 202 201
9 10 12 13 12 11 12 11 11 11 10 10 12 16 21 23 22 24 23 21 54 190 205 208 218 230 231 224 218 215 213 209 202 197 196 195 193 192 194 195 195 195
9 11 13 15 14 14 14 12 12 13 13 15 16 19 23 26 31 39 46 52 60 76 108 159 200 214 218 219 214 207 206 199 184 179 182 180 176 171 172 178 181 189
12 13 16 18 18 17 16 15 14 15 17 20 22 24 26 28 32 39 49 57 63 67 72 74 83 139 188 205 196 189 190 179 166 168 166 160 155 148 153 173 179 178
18 16 19 23 24 23 21 20 19 21 23 27 29 29 31 32 35 39 44 50 58 64 68 69 70 88 131 170 188 190 177 144 135 150 153 146 142 137 142 161 171 169
26 23 25 27 27 29 30 28 27 27 30 34 35 36 38 38 38 42 43 46 52 56 57 60 64 70 88 122 203 224 181 148 134 122 118 125 125 122 123 132 149 159